Stations météo

réclame
Mon MeteoGroup
Boulogne, France (7002): Température de l'air & dewpoint: 20.08.2019 02:00:00 - 26.08.2019 02:00:00 (CEST)Boulogne, France (7002): Vitesse du vent & gusts: 20.08.2019 02:00:00 - 26.08.2019 02:00:00 (CEST)Boulogne, France (7002): Direction du vent: 20.08.2019 02:00:00 - 26.08.2019 02:00:00 (CEST)Boulogne, France (7002): reduced air pressure: 20.08.2019 02:00:00 - 26.08.2019 02:00:00 (CEST)Boulogne, France (7002): visibility: 20.08.2019 02:00:00 - 26.08.2019 02:00:00 (CEST)Boulogne, France (7002): Quantités de précipitations: 20.08.2019 02:00:00 - 26.08.2019 02:00:00 (CEST)
Date & Time tt [°C] td [°C] ff [km/h] ff [knt] fx [km/h] fx [knt] dd ppp [hPa] vv [km] rr [mm]
26.08.2019 02:00:00 23,3 13,2 16 9 25 14 E 1018,7 - 0,0
26.08.2019 01:00:00 23,6 13,2 18 10 28 15 E 1019,0 - 0,0
26.08.2019 00:00:00 23,3 12,6 19 10 27 15 E 1019,1 - 0,0
25.08.2019 23:00:00 23,3 12,6 18 10 29 15 E 1019,2 12 0,0
25.08.2019 22:00:00 24,0 12,9 21 12 29 16 ENE 1019,1 - 0,0
25.08.2019 21:00:00 25,1 13,3 18 10 25 13 ENE 1018,5 - 0,0
25.08.2019 20:00:00 27,2 13,5 14 8 21 12 ENE 1018,3 15 0,0
25.08.2019 19:00:00 28,7 12,2 6 3 14 7 N 1018,2 - 0,0
25.08.2019 18:00:00 28,3 13,8 9 5 16 9 NNW 1018,3 - 0,0
25.08.2019 17:00:00 28,2 13,3 9 5 16 9 NNW 1018,4 14 0,0
25.08.2019 16:00:00 27,0 14,4 10 5 16 9 NNW 1018,6 - 0,0
25.08.2019 15:00:00 26,0 15,1 9 5 14 7 NW 1018,7 - 0,0
25.08.2019 14:00:00 26,7 13,8 6 4 14 7 WNW 1018,5 - 0,0
25.08.2019 13:00:00 26,3 13,8 8 4 13 7 W 1018,6 - 0,0
25.08.2019 12:00:00 26,1 14,5 4 2 10 5 W 1018,7 - 0,0
25.08.2019 11:00:00 26,8 14,9 5 3 11 6 S 1018,7 9 0,0
25.08.2019 10:00:00 26,2 14,6 6 3 12 7 SE 1018,3 - 0,0
25.08.2019 09:00:00 22,2 13,5 10 5 16 9 SE 1018,1 - 0,0
25.08.2019 08:00:00 22,1 13,2 12 7 18 10 SE 1017,6 16 0,0
25.08.2019 07:00:00 22,5 13,0 12 7 16 9 SE 1017,3 - 0,0
25.08.2019 06:00:00 21,9 13,0 12 6 16 9 SE 1017,2 - 0,0
25.08.2019 05:00:00 21,8 12,9 13 7 20 11 SE 1017,3 15 0,0
25.08.2019 04:00:00 21,3 13,2 16 9 23 13 SE 1017,2 - 0,0
25.08.2019 03:00:00 21,7 13,1 15 8 24 13 SE 1017,2 - 0,0
25.08.2019 02:00:00 22,8 12,7 15 8 24 13 ESE 1017,4 - 0,0
25.08.2019 01:00:00 23,6 12,3 16 9 24 13 ESE 1017,4 - 0,0
25.08.2019 00:00:00 23,4 13,0 12 7 18 10 ESE 1017,5 - 0,0
24.08.2019 23:00:00 23,1 14,6 11 6 15 8 E 1017,5 7 0,0
24.08.2019 22:00:00 23,6 15,4 9 5 13 7 ENE 1017,5 - 0,0
24.08.2019 21:00:00 24,7 14,5 4 2 12 7 ENE 1017,4 - 0,0
24.08.2019 20:00:00 25,1 15,1 8 4 13 7 N 1017,4 8 0,0
24.08.2019 19:00:00 26,7 15,1 7 4 16 8 N 1017,5 - 0,0
24.08.2019 18:00:00 26,5 14,6 8 4 19 10 N 1017,8 - 0,0
24.08.2019 17:00:00 26,6 15,6 11 6 20 11 N 1018,0 8 0,0
24.08.2019 16:00:00 26,4 15,7 11 6 21 12 NNW 1018,3 - 0,0
24.08.2019 15:00:00 25,2 15,5 11 6 19 11 NNW 1018,7 - 0,0
24.08.2019 14:00:00 25,1 14,2 12 7 20 11 N 1018,9 - 0,0
24.08.2019 13:00:00 23,5 14,5 11 6 18 10 N 1019,5 - 0,0
24.08.2019 12:00:00 22,7 17,2 7 4 11 6 NNW 1019,8 - 0,0
24.08.2019 11:00:00 22,6 14,9 4 2 8 4 NNW 1020,0 6 0,0
24.08.2019 10:00:00 21,4 14,1 4 2 9 5 S 1020,1 - 0,0
24.08.2019 09:00:00 21,7 14,8 3 2 14 8 ESE 1019,9 - 0,0
24.08.2019 08:00:00 20,6 12,6 12 6 16 9 ESE 1019,8 - 0,0
24.08.2019 07:00:00 18,7 12,2 12 7 18 10 ESE 1019,9 - 0,0
24.08.2019 06:00:00 18,8 12,5 13 7 19 10 E 1020,0 - 0,0
24.08.2019 05:00:00 19,2 12,5 12 7 20 11 ESE 1020,5 8 0,0
24.08.2019 04:00:00 19,7 12,7 13 7 25 14 ESE 1020,7 - 0,0
24.08.2019 03:00:00 19,7 12,7 13 7 27 15 ESE 1021,1 - 0,0
24.08.2019 02:00:00 19,5 13,0 13 7 29 16 E 1021,4 8 0,0
24.08.2019 01:00:00 19,0 13,0 17 9 28 15 E 1021,7 - 0,0
24.08.2019 00:00:00 18,5 12,5 11 6 24 13 E 1022,1 - 0,0
23.08.2019 23:00:00 19,0 12,3 19 10 26 14 ENE 1022,2 12 0,0
23.08.2019 22:00:00 19,3 12,3 14 8 24 13 ENE 1022,5 - 0,0
23.08.2019 21:00:00 19,8 14,4 7 4 16 8 NE 1022,7 - 0,0
23.08.2019 20:00:00 20,6 16,0 7 4 16 9 N 1022,7 - 0,0
23.08.2019 19:00:00 20,8 16,8 9 5 20 11 NNW 1022,8 - 0,0
23.08.2019 18:00:00 20,8 16,2 14 7 21 11 N 1023,4 - 0,0
23.08.2019 17:00:00 20,3 15,7 11 6 20 11 NNW 1023,9 - 0,0
23.08.2019 16:00:00 19,8 16,6 12 7 22 12 NNW 1024,4 - 0,0
23.08.2019 15:00:00 19,1 16,9 11 6 19 11 NW 1024,9 - 0,0
23.08.2019 14:00:00 18,8 16,4 10 5 18 10 NW 1025,2 - 0,0
23.08.2019 13:00:00 19,1 16,1 8 4 14 7 NW 1025,5 - 0,0
23.08.2019 12:00:00 19,1 16,3 6 3 11 6 WNW 1025,7 - 0,0
23.08.2019 11:00:00 18,0 15,4 5 3 10 5 W 1026,0 - 0,0
23.08.2019 10:00:00 17,2 14,7 5 3 9 5 WSW 1026,1 - 0,0
23.08.2019 09:00:00 17,3 13,8 3 2 6 3 SE 1025,9 - 0,0
23.08.2019 08:00:00 15,2 13,6 3 1 7 4 SSE 1026,0 - 0,0
23.08.2019 07:00:00 14,0 12,6 4 2 12 7 S 1025,8 - 0,0
23.08.2019 06:00:00 13,7 12,1 9 5 13 7 SE 1025,7 - 0,0
23.08.2019 05:00:00 13,6 11,6 7 4 11 6 SSE 1026,0 - 0,0
23.08.2019 04:00:00 13,7 11,7 6 4 13 7 SSE 1026,1 - 0,0
23.08.2019 03:00:00 13,9 11,9 8 4 13 7 SSE 1026,2 - 0,0
23.08.2019 02:00:00 14,5 12,4 8 5 10 6 SE 1026,3 - 0,0
23.08.2019 01:00:00 14,8 12,3 5 3 17 9 SSE 1026,3 - 0,0
23.08.2019 00:00:00 16,1 12,8 9 5 17 9 SW 1026,4 - 0,0
22.08.2019 23:00:00 16,3 12,8 10 5 17 9 SW 1026,0 20 0,0
22.08.2019 22:00:00 16,5 12,8 11 6 22 12 SW 1026,1 - 0,0
22.08.2019 21:00:00 16,8 12,9 16 8 24 13 WSW 1025,9 - 0,0
22.08.2019 20:00:00 17,6 12,5 16 9 26 14 SW 1025,6 - 0,0
22.08.2019 19:00:00 18,4 12,4 16 9 30 16 WSW 1025,8 - 0,0
22.08.2019 18:00:00 18,6 11,2 22 12 35 19 WSW 1026,0 - 0,0
22.08.2019 17:00:00 18,4 13,5 22 12 34 18 WSW 1026,1 20 0,0
22.08.2019 16:00:00 18,5 14,0 24 13 35 19 WSW 1026,2 - 0,0
22.08.2019 15:00:00 18,6 13,7 20 11 30 16 WSW 1026,4 - 0,0
22.08.2019 14:00:00 18,4 12,8 20 11 31 17 SW 1026,7 17 0,0
22.08.2019 13:00:00 17,9 11,9 18 10 28 15 SW 1026,7 - 0,0
22.08.2019 12:00:00 17,6 11,8 16 9 27 15 WSW 1026,8 - 0,0
22.08.2019 11:00:00 17,2 12,3 13 7 22 12 SW 1026,5 15 0,0
22.08.2019 10:00:00 16,5 12,1 8 4 13 7 WSW 1026,4 - 0,0
22.08.2019 09:00:00 14,6 12,1 5 3 10 5 WSW 1026,3 - 0,0
22.08.2019 08:00:00 13,4 12,3 5 3 16 9 SE 1026,1 15 0,0
22.08.2019 07:00:00 13,1 11,8 5 3 11 6 SW 1025,7 - 0,0
22.08.2019 06:00:00 13,3 12,0 6 4 14 7 SSW 1025,5 - 0,0
22.08.2019 05:00:00 13,3 11,9 9 5 14 7 SSE 1025,4 - 0,0
22.08.2019 04:00:00 13,7 12,3 8 4 11 6 SSE 1025,5 - 0,0
22.08.2019 03:00:00 13,9 11,9 6 3 9 5 SSE 1025,9 - 0,0
22.08.2019 02:00:00 14,1 11,6 5 3 8 4 SSE 1026,3 - 0,0
22.08.2019 01:00:00 14,5 11,6 6 3 9 5 SE 1026,3 - 0,0
22.08.2019 00:00:00 14,8 12,1 7 4 10 5 SE 1026,4 - 0,0
21.08.2019 23:00:00 16,0 12,0 7 4 11 6 ESE 1026,5 - 0,0
21.08.2019 22:00:00 16,2 12,7 7 4 12 6 E 1026,6 - 0,0
21.08.2019 21:00:00 16,4 12,9 4 2 10 5 N 1026,3 - 0,0
21.08.2019 20:00:00 17,7 13,2 5 3 15 8 W 1026,2 - 0,0
21.08.2019 19:00:00 18,3 13,4 9 5 16 9 W 1026,5 - 0,0
21.08.2019 18:00:00 18,5 14,0 9 5 19 11 WNW 1026,9 - 0,0
21.08.2019 17:00:00 18,6 13,9 12 6 22 12 W 1026,9 15 0,0
21.08.2019 16:00:00 18,4 12,8 12 6 22 12 W 1027,2 - 0,0
21.08.2019 15:00:00 18,3 13,2 14 8 24 13 W 1027,7 - 0,0
21.08.2019 14:00:00 18,0 12,2 13 7 27 15 SW 1027,9 10 0,0
21.08.2019 13:00:00 18,0 13,3 15 8 25 13 WSW 1028,2 - 0,0
21.08.2019 12:00:00 18,0 13,7 11 6 19 10 W 1028,5 - 0,0
21.08.2019 11:00:00 17,5 14,2 8 5 11 6 W 1028,6 8 0,0
21.08.2019 10:00:00 18,2 13,7 3 2 8 5 S 1028,6 - 0,0
21.08.2019 09:00:00 16,0 13,7 5 3 10 5 SSE 1028,5 - 0,0
21.08.2019 08:00:00 14,6 13,5 6 3 9 5 SSE 1028,3 7 0,0
21.08.2019 07:00:00 13,5 12,7 5 3 11 6 SE 1028,0 - 0,0
21.08.2019 06:00:00 13,4 12,5 8 4 11 6 SE 1027,6 - 0,0
21.08.2019 05:00:00 14,0 12,9 8 4 12 7 ESE 1027,4 - 0,0
21.08.2019 04:00:00 14,3 12,8 9 5 12 6 ESE 1027,5 - 0,0
21.08.2019 03:00:00 15,3 13,1 3 2 19 11 SSW 1027,5 - 0,0
21.08.2019 02:00:00 16,1 14,1 11 6 32 17 W 1027,5 - 0,0
21.08.2019 01:00:00 16,3 14,1 18 10 32 18 W 1027,3 - 0,0
21.08.2019 00:00:00 16,2 13,5 18 10 34 18 W 1027,3 - 0,0
20.08.2019 23:00:00 16,1 12,8 17 9 31 17 WSW 1027,1 17 0,0
20.08.2019 22:00:00 16,1 12,1 19 11 35 19 WSW 1026,8 - 0,0
20.08.2019 21:00:00 16,1 12,3 21 11 36 19 WSW 1026,4 - 0,0
20.08.2019 20:00:00 16,8 11,7 23 12 40 22 W 1025,8 15 0,0
20.08.2019 19:00:00 17,5 11,5 22 12 42 23 WSW 1025,5 - 0,0
20.08.2019 18:00:00 17,9 11,7 26 14 42 23 WSW 1025,2 - 0,0
20.08.2019 17:00:00 17,8 10,7 27 15 43 23 WSW 1024,9 22 0,0
20.08.2019 16:00:00 17,7 11,9 26 14 40 22 WSW 1024,7 - 0,0
20.08.2019 15:00:00 18,2 11,0 22 12 37 20 WSW 1024,4 - 0,0
20.08.2019 14:00:00 18,0 11,8 19 10 36 20 WSW 1024,1 19 0,0
20.08.2019 13:00:00 17,0 12,3 22 12 35 19 W 1023,6 - 0,0
20.08.2019 12:00:00 17,0 11,5 22 12 34 18 W 1023,4 - 0,0
20.08.2019 11:00:00 16,4 11,8 21 12 32 17 W 1023,2 17 0,0
20.08.2019 10:00:00 16,0 12,0 19 10 29 16 W 1022,8 - 0,0
20.08.2019 09:00:00 15,3 11,3 15 8 30 16 W 1022,3 - 0,0
20.08.2019 08:00:00 15,3 11,5 19 10 29 16 W 1021,8 - 0,0
20.08.2019 07:00:00 15,5 11,7 16 9 36 19 W 1020,9 - 0,6
20.08.2019 06:00:00 15,1 12,2 26 14 43 23 W 1020,3 - 0,0
20.08.2019 05:00:00 16,0 13,3 24 13 38 21 WSW 1020,2 - 0,0
20.08.2019 04:00:00 16,3 13,6 26 14 38 20 WSW 1020,2 - 0,0
20.08.2019 03:00:00 16,3 13,4 23 13 43 23 WSW 1020,3 - 0,0
20.08.2019 02:00:00 16,3 13,4 24 13 44 24 WSW 1020,3 15 0,0

tt = Température de l'air
td = dewpoint
ff = Vitesse du vent
fx = gusts
dd = Direction du vent
ppp = reduced air pressure
vv = visibility
rr = Quantités de précipitations

stations d'obs. à proximité